Location: Burg
(48.4500°N, 9.0667°E)
Time: 22:01:57
(UTC+00:00)

Daily predictions for brighter satellites

Satellite Brightness Start Highest point End
(mag) Time Altitude Azimuth Time Altitude Azimuth Time Altitude Azimuth
Cosmos 1726 Rocket 3.7 15:58:59 10° S 16:03:26 86° WNW 16:07:53 10° N
CZ-2D R/B 3.2 16:00:48 10° SSE 16:04:23 57° ENE 16:08:00 10° N
Cosmos 1812 4.1 16:07:01 10° SE 16:09:35 18° E 16:12:09 10° NE
YAOGAN 11 4.5 16:10:20 10° NNE 16:14:46 49° E 16:19:11 10° S
USA 276 2.6 16:12:45 10° SW 16:14:57 33° SSE 16:17:13 10° E
CZ-2C R/B 2.6 16:12:27 10° SSE 16:15:56 59° ENE 16:19:30 10° N
Cosmos 2263 Rocket 2.3 16:11:14 10° SSW 16:16:42 62° ESE 16:22:13 10° NNE
Cosmos 1437 Rocket 2.9 16:13:21 10° NNW 16:17:05 75° W 16:20:50 10° S
Cosmos 1844 Rocket 4.3 16:14:45 10° SE 16:17:32 14° E 16:20:19 10° ENE
Nadezhda 4 Rocket 4.4 16:15:00 10° SSE 16:20:38 40° E 16:26:16 10° NNE
CORIOLIS 4.2 16:15:36 10° SE 16:20:49 57° ENE 16:26:06 10° N
ERS-2 2.3 16:19:31 10° S 16:22:23 56° WSW 16:25:17 10° NNW
USA 307 2.7 16:20:25 10° WNW 16:24:17 82° SSW 16:28:06 10° ESE
Cosmos 2227 Rocket 3.1 16:19:29 10° SW 16:24:56 47° NW 16:30:24 10° NNE
Cosmos 44 4.2 16:21:53 10° NW 16:27:12 60° WSW 16:32:16 10° SSE
Meteor 1-20 Rocket 4.5 16:21:56 10° N 16:27:16 44° ENE 16:32:40 10° SE
Cosmos 1140 Rocket 3.6 16:22:46 10° NNW 16:27:50 51° ENE 16:32:50 10° SE
SAR-Lupe-2 3.8 16:26:04 10° S 16:29:38 76° WSW 16:33:14 10° NNW
YAOGAN 1 4.4 16:29:59 12° NE 16:29:59 12° NE 16:31:18 10° NE
Cosmos 1666 2.4 16:30:46 10° N 16:34:19 79° E 16:37:51 10° SSE
NOSS 8 (A) 4.5 16:33:09 10° SW 16:36:53 70° NW 16:39:23 14° NE
Cosmos 1603 3.9 16:32:16 10° NNW 16:37:50 51° NE 16:43:20 10° SE
DMSP B5D2-2 4.0 16:33:37 10° NNE 16:38:51 76° ESE 16:44:04 10° S
Cosmos 1076 Rocket 4.1 16:37:14 10° NNW 16:41:34 62° W 16:45:51 10° S
Meteor 1-31 Rocket 2.5 16:39:10 10° SSE 16:42:50 71° ENE 16:46:34 10° N
USA 306 3.7 16:45:23 10° W 16:47:13 22° SW 16:48:57 10° SSE
SL-16 R/B 4.1 16:45:33 10° NW 16:50:34 33° WSW 16:55:34 10° SSW
ATLAS CENTAUR R/B 2.8 16:46:58 10° NW 16:51:05 81° SW 16:59:12 10° SE
Cosmos 1602 3.8 16:49:28 10° NNW 16:53:12 77° W 16:56:55 10° S
SL-8 R/B 4.5 16:50:51 10° W 16:55:29 51° SSW 17:00:07 10° SE
RESURS DK-1 3.6 16:52:35 10° N 16:55:50 22° NE 16:56:12 21° NE
USA 305 3.0 16:52:14 10° WNW 16:56:01 62° SW 16:59:48 10° SE
CZ-4B R/B 3.4 16:53:46 10° SSE 16:58:45 61° ENE 17:03:37 10° N
Cosmos 1782 3.3 16:57:45 10° SSE 17:01:19 35° E 17:03:03 23° NE
Cosmos 1812 Rocket 3.5 16:57:24 10° S 17:01:39 59° E 17:05:59 10° NNE
Cosmos 1943 3.3 16:56:11 10° NNW 17:01:50 81° WSW 17:07:29 10° SSE
Helios 1A 3.1 16:58:42 13° NNE 17:02:14 49° E 17:06:15 10° S
ATLAS 2AS CENTAUR R/B 2.9 16:57:21 10° NW 17:04:06 48° NE 17:09:08 17° ESE
SMAP 3.7 17:00:56 10° S 17:05:31 59° W 17:10:08 10° NNW
NOAA 6 4.0 17:01:35 10° SSE 17:06:35 57° ENE 17:11:37 10° N
CZ-4B R/B 4.3 17:05:24 10° S 17:08:55 55° W 17:12:31 10° NNW
Radarsat Rocket 3.9 17:07:23 10° SSE 17:13:08 66° ENE 17:19:13 10° NNW
Cosmos 407 Rocket 3.4 17:08:02 10° NNW 17:13:14 87° ENE 17:18:21 10° SSE
Cosmos 2297 Rocket 4.4 17:10:06 10° WNW 17:13:45 17° NW 17:17:26 10° N
ISS -0.9 17:17:16 10° W 17:19:33 17° SW 17:21:50 10° S
Cosmos 2251 Rocket 3.7 17:15:37 10° NNW 17:20:59 78° WSW 17:26:21 10° SSE
Cosmos 220 Rocket 3.9 17:20:32 10° NNW 17:24:49 59° ENE 17:27:54 18° SE
Cosmos 2056 Rocket 4.0 17:22:30 10° S 17:27:29 40° ESE 17:28:45 35° ENE
Cosmos 1954 Rocket 4.1 17:22:40 10° NNW 17:27:49 52° ENE 17:31:28 19° SE
COSMOS 2455 4.2 17:23:39 10° SSE 17:27:03 21° ESE 17:27:03 21° ESE
Timation 2 Rocket 4.1 17:22:42 10° S 17:28:22 47° ESE 17:30:41 32° ENE
Cosmos 1844 4.1 17:23:11 10° S 17:28:36 44° ESE 17:30:24 34° ENE
CZ-4 R/B 4.3 17:26:12 10° SSE 17:30:17 82° ENE 17:34:24 10° NNW
Lacrosse 5 2.2 17:25:36 10° SSW 17:30:26 48° SE 17:31:43 39° E
Cosmos-2242 3.7 17:27:03 10° SSW 17:31:18 54° WNW 17:35:34 10° N
COSMO-SKYMED 1 2.5 17:29:30 28° NNE 17:31:43 66° ESE 17:36:02 10° S
Lacrosse 4 Rocket 2.8 17:29:27 10° NW 17:33:31 40° WSW 17:37:28 10° S
Cosmos 1833 Rocket 4.0 17:30:17 10° N 17:33:49 22° NNE 17:33:49 22° NNE
Cosmos 1553 Rocket 4.0 17:33:08 10° N 17:39:21 54° ENE 17:45:24 10° SSE
APEX 3.4 17:37:13 10° SW 17:39:57 43° WNW 17:39:57 43° WNW
USA 234 3.2 17:37:35 32° ENE 17:40:52 76° SE 17:47:24 10° SW
Meteor 2-2 Rocket 4.4 17:35:14 10° SSW 17:41:00 78° WNW 17:46:56 10° N
Cosmos 2221 2.8 17:37:38 10° S 17:41:02 46° SE 17:41:02 46° SE
Cosmos 2344 3.4 17:35:12 10° SW 17:42:46 85° SE 17:47:05 28° NE
Cosmos 1812 4.2 17:41:04 10° SW 17:44:28 35° WNW 17:47:41 11° N
Cosmos 1190 Rocket 4.0 17:39:58 10° NNW 17:45:20 87° WSW 17:50:37 10° SSE
Cosmos 1818 3.5 17:41:09 10° SW 17:46:36 85° NW 17:48:45 38° NE
Cosmos 2026 Rocket 4.0 17:41:45 10° S 17:48:01 89° W 17:54:26 10° N
USA 276 4.2 17:47:03 10° W 17:48:03 21° W 17:48:03 21° W
Cosmos 1371 Rocket 3.9 17:46:31 10° S 17:51:41 64° ESE 17:52:32 55° ENE
NOAA 15 4.5 17:49:07 10° SSE 17:54:22 68° ENE 17:59:39 10° N
Cosmos 1844 Rocket 2.5 17:54:58 10° SSW 18:00:31 85° ESE 18:02:02 50° NNE
Cosmos 2263 Rocket 3.9 17:56:18 10° WSW 18:01:02 28° NW 18:05:03 13° N
Meteor 1-26 Rocket 4.1 17:55:46 10° S 18:01:19 82° E 18:04:18 30° NNE
Cosmos 1766 Rocket 3.5 17:59:40 10° NNW 18:04:02 78° W 18:08:21 10° S
YAOGAN 1 3.8 18:07:02 31° NNW 18:07:02 31° NNW 18:09:18 10° NNW
Cosmos 1092 Rocket 4.3 17:59:31 10° SSW 18:05:36 66° WNW 18:11:44 10° N
Cosmos 1933 4.2 18:03:03 10° SSW 18:06:55 48° WNW 18:07:55 39° NNW
Cosmos 1420 Rocket 3.9 18:02:23 10° SSW 18:07:38 89° ESE 18:08:28 65° NNE
ADEOS 3.9 18:05:04 10° S 18:10:13 63° WSW 18:15:26 10° NNW
Cosmos 2082 Rocket 4.3 18:08:19 10° N 18:09:22 13° N 18:09:22 13° N
Cosmos 1624 Rocket 3.9 18:10:14 10° SSW 18:15:27 87° WNW 18:15:40 83° N
Cosmos 1417 Rocket 4.3 18:17:30 10° N 18:23:50 76° E 18:24:06 74° ESE
SL-08 R/B 3.8 18:25:44 52° NW 18:26:09 54° WNW 18:30:40 10° SSW
RESURS DK-1 4.2 18:29:55 10° NW 18:31:56 26° NW 18:31:56 26° NW
BREEZE-M DEB 4.5 18:28:37 10° WSW 18:48:50 76° SSE 18:49:09 75° SE
ATLAS 2AS CENTAUR R/B 3.3 18:48:30 10° NW 18:55:06 51° WSW 18:56:38 43° SSW
COSMOS 2455 4.2 19:07:18 10° SW 19:10:14 31° SW 19:10:14 31° SW
Lacrosse 5 3.8 19:08:31 10° WSW 19:10:56 27° W 19:10:56 27° W
USA 234 4.0 19:24:56 47° NW 19:24:56 47° NW 19:30:02 10° W
